Miscellaneous Local Product
Issued by NWS Hastings, NE

Home | Current Version | Previous Version | Graphics & Text | Print | Product List | Glossary On
Versions: 1 2 3 4 5 6 7 8 9 10 11 12 13 14 15 16 17 18 19 20 21 22 23 24 25 26 27 28 29 30 31 32 33 34 35 36 37 38 39 40 41 42 43 44 45 46 47 48 49 50
000
AXUS43 KGID 182102
MISGRI

GID CWA HOURLY WEATHER ROUNDUP
NATIONAL WEATHER SERVICE HASTINGS NE
300 PM CST SAT NOV 18 2017

NOTE: "FAIR" INDICATES FEW OR NO CLOUDS BELOW 12,000 FEET WITH NO
SIGNIFICANT WEATHER AND/OR OBSTRUCTIONS TO VISIBILITY.

...SOUTH CENTRAL NEBRASKA...

CITY           SKY/WX    TMP DP  RH WIND       PRES   REMARKS
GRAND ISLAND   MOSUNNY   47  27  45 NW23G32   30.10R
KEARNEY        MOSUNNY   48  25  40 NW18G26   30.12R
HASTINGS       MOSUNNY   48  25  40 NW25G39   30.11R
ORD            MOSUNNY   47  26  44 NW25G35   30.08F
YORK           SUNNY     48  28  46 NW25G31   30.07R
AURORA         SUNNY     48  27  44 NW29      30.10R
LEXINGTON      MOSUNNY   49  23  35 NW23      30.13S
HOLDREGE       MOSUNNY   48  25  41 NW18G29   30.13R
HEBRON         MOSUNNY   52  27  38 NW24G32   30.09R

...NEBRASKA PANHANDLE...

CITY           SKY/WX    TMP DP  RH WIND       PRES   REMARKS
CHADRON        SUNNY     45  15  30 NW17G28   30.16F
ALLIANCE       SUNNY     45  14  28 NW17G26   30.14F
SCOTTSBLUFF    SUNNY     44  13  28 NW16      30.18F
SIDNEY         SUNNY     43  15  32 NW21G29   30.19S

...WESTERN AND NORTH CENTRAL NEBRASKA...

CITY           SKY/WX    TMP DP  RH WIND       PRES   REMARKS
VALENTINE      SUNNY     46  22  38 N18G29    30.10F
AINSWORTH      SUNNY     43  24  45 NW24G35   30.10F
ONEILL         SUNNY     41  27  57 NW18G25   30.10R
BROKEN BOW     MOSUNNY   47  24  40 NW22G30   30.11S
IMPERIAL       SUNNY     47  16  29 NW22G31   30.18F
NORTH PLATTE   SUNNY     48  18  30 NW25G31   30.15S
MCCOOK         SUNNY     49  21  33 NW22G31   30.16F

...EASTERN NEBRASKA...

CITY           SKY/WX    TMP DP  RH WIND       PRES   REMARKS
NORFOLK        SUNNY     42  26  53 NW21G29   30.05R
SO SIOUX CITY  SUNNY     41  25  53 NW20G35   30.03R
TEKAMAH        SUNNY     43  27  53 NW23G30   30.04R
COLUMBUS       SUNNY     45  27  49 NW24G32   30.07R
ALBION         SUNNY     45  29  53 NW23      30.08R
OMAHA EPPLEY   MOSUNNY   46  28  49 NW25G35   30.01R
OFFUTT AFB     SUNNY     48  27  45 NW18G28   30.01R
MILLARD        SUNNY     49  29  46 NW21G28   30.03R
LINCOLN        SUNNY     50  28  42 NW25G33   30.05R
NEBRASKA CITY  MOSUNNY   49  32  51 NW29G36   30.01R
BEATRICE       MOSUNNY   50  31  47 NW30G36   30.05S
FALLS CITY     MOSUNNY   51  31  46 NW21G37   30.00R

...NORTHERN KANSAS...

CITY           SKY/WX    TMP DP  RH WIND       PRES   REMARKS
GOODLAND       SUNNY     46  15  28 NW22G37   30.20F
HILL CITY      SUNNY     51  22  31 NW22G33   30.18S
NORTON         PTCLDY    50  18  27 NW16G30   30.16S
PHILLIPSBURG   MOSUNNY   54  21  28 NW17G26   30.16R
SMITH CENTER   MOSUNNY   52  23  32 NW22G29   30.14R
HAYS           SUNNY     53  20  27 N22G31    30.15S
RUSSELL        LGT RAIN  54  21  27 NW28G37   30.13R
CONCORDIA      MOSUNNY   52  27  38 NW25G31   30.09R
SALINA         SUNNY     56  25  30 NW30G40   30.09R
TOPEKA         PTSUNNY   54  33  45 N20G28    30.02R



USA.gov is the U.S. government's official web portal to all federal, state and local government web resources and services.